| time (UTC) | temp F | wind direction | speed knots | gust knots | rain 1hr in | rain 24hr in | rain mn in | humidity % | barometer mb |
| 20260507030638 | 52 | 199 | 10.4 | 13.0 | 0.00 | 0.24 | 0.24 | 97 | 1007.7 |
| 20260507030136 | 52 | 206 | 12.2 | 13.9 | 0.00 | 0.24 | 0.24 | 97 | 1007.7 |
| 20260507025633 | 52 | 212 | 11.3 | 15.6 | 0.00 | 0.24 | 0.24 | 97 | 1007.7 |
| 20260507025130 | 52 | 210 | 10.4 | 16.5 | 0.00 | 0.24 | 0.24 | 97 | 1007.8 |
| 20260507024628 | 52 | 220 | 12.2 | 14.8 | 0.00 | 0.24 | 0.24 | 97 | 1007.9 |
| 20260507024125 | 52 | 212 | 12.2 | 17.4 | 0.00 | 0.24 | 0.24 | 97 | 1007.7 |
| 20260507023620 | 52 | 199 | 9.6 | 12.2 | 0.00 | 0.24 | 0.24 | 97 | 1007.7 |
| 20260507023118 | 52 | 202 | 9.6 | 13.0 | 0.00 | 0.24 | 0.24 | 97 | 1007.7 |
| 20260507022615 | 52 | 201 | 8.7 | 13.9 | 0.00 | 0.24 | 0.24 | 97 | 1007.9 |
| 20260507022110 | 52 | 210 | 8.7 | 13.0 | 0.00 | 0.24 | 0.24 | 96 | 1007.8 |
| 20260507021607 | 52 | 206 | 12.2 | 13.9 | 0.00 | 0.24 | 0.24 | 96 | 1007.9 |
| 20260507021102 | 52 | 207 | 8.7 | 12.2 | 0.00 | 0.24 | 0.24 | 96 | 1007.9 |
| 20260507020601 | 52 | 198 | 8.7 | 11.3 | 0.00 | 0.24 | 0.24 | 96 | 1008.0 |
| 20260507020057 | 52 | 201 | 7.8 | 14.8 | 0.00 | 0.24 | 0.24 | 96 | 1007.9 |
| 20260507015556 | 53 | 216 | 8.7 | 13.9 | 0.00 | 0.24 | 0.24 | 96 | 1007.8 |
| 20260507015053 | 53 | 188 | 6.1 | 15.6 | 0.00 | 0.24 | 0.24 | 96 | 1008.0 |
| 20260507014549 | 53 | 215 | 11.3 | 14.8 | 0.00 | 0.24 | 0.24 | 96 | 1008.0 |
| 20260507014044 | 53 | 209 | 11.3 | 15.6 | 0.00 | 0.24 | 0.24 | 96 | 1008.2 |
| 20260507013541 | 53 | 217 | 11.3 | 14.8 | 0.00 | 0.24 | 0.24 | 96 | 1008.3 |
| 20260507013039 | 53 | 205 | 11.3 | 16.5 | 0.00 | 0.24 | 0.24 | 96 | 1008.1 |
| 20260507012536 | 53 | 208 | 11.3 | 15.6 | 0.00 | 0.24 | 0.24 | 96 | 1008.4 |
| 20260507012026 | 53 | 213 | 12.2 | 17.4 | 0.00 | 0.24 | 0.24 | 96 | 1008.4 |
| 20260507011524 | 53 | 211 | 12.2 | 14.8 | 0.00 | 0.24 | 0.24 | 96 | 1008.3 |
| 20260507011019 | 53 | 213 | 14.8 | 16.5 | 0.00 | 0.24 | 0.24 | 96 | 1008.4 |
| 20260507010515 | 53 | 229 | 17.4 | 18.2 | 0.00 | 0.24 | 0.24 | 96 | 1008.5 |
| 20260507010011 | 53 | 218 | 10.4 | 16.5 | 0.00 | 0.24 | 0.24 | 96 | 1008.4 |
| 20260507005509 | 53 | 216 | 13.0 | 18.2 | 0.00 | 0.24 | 0.24 | 96 | 1008.6 |
| 20260507005005 | 53 | 218 | 16.5 | 16.5 | 0.00 | 0.24 | 0.24 | 96 | 1008.5 |
| 20260507004502 | 53 | 226 | 15.6 | 17.4 | 0.00 | 0.24 | 0.24 | 96 | 1008.6 |
| 20260507004000 | 53 | 229 | 11.3 | 15.6 | 0.00 | 0.24 | 0.24 | 96 | 1008.5 |
| 20260507003455 | 53 | 228 | 14.8 | 18.2 | 0.00 | 0.24 | 0.24 | 96 | 1008.4 |
| 20260507002950 | 53 | 219 | 12.2 | 14.8 | 0.00 | 0.24 | 0.24 | 96 | 1008.5 |
| 20260507002447 | 53 | 227 | 10.4 | 15.6 | 0.00 | 0.24 | 0.24 | 96 | 1008.4 |
| 20260507001943 | 53 | 215 | 14.8 | 16.5 | 0.00 | 0.24 | 0.24 | 97 | 1008.3 |
| 20260507001439 | 53 | 217 | 12.2 | 14.8 | 0.00 | 0.24 | 0.24 | 96 | 1008.3 |
| 20260507000937 | 53 | 220 | 11.3 | 13.9 | 0.00 | 0.24 | 0.24 | 97 | 1008.2 |
| 20260507000434 | 53 | 224 | 11.3 | 15.6 | 0.00 | 0.24 | 0.24 | 97 | 1008.3 |
| 20260506235928 | 53 | 220 | 8.7 | 13.0 | 0.00 | 0.24 | 0.24 | 97 | 1008.1 |
| 20260506235426 | 52 | 214 | 7.0 | 10.4 | 0.00 | 0.24 | 0.24 | 97 | 1008.2 |
| 20260506234922 | 53 | 216 | 13.0 | 13.9 | 0.00 | 0.24 | 0.24 | 97 | 1008.3 |
| 20260506234420 | 53 | 208 | 7.8 | 12.2 | 0.00 | 0.24 | 0.24 | 97 | 1008.1 |
| 20260506233917 | 53 | 193 | 7.8 | 13.9 | 0.00 | 0.24 | 0.24 | 97 | 1008.1 |
| 20260506233414 | 53 | 210 | 14.8 | 15.6 | 0.00 | 0.24 | 0.24 | 97 | 1008.0 |
| 20260506232910 | 53 | 196 | 8.7 | 13.9 | 0.00 | 0.24 | 0.24 | 97 | 1008.1 |
| 20260506232406 | 53 | 184 | 6.1 | 14.8 | 0.00 | 0.24 | 0.24 | 97 | 1008.1 |
| 20260506231902 | 53 | 200 | 9.6 | 11.3 | 0.02 | 0.24 | 0.24 | 97 | 1007.9 |
| 20260506231359 | 53 | 201 | 14.8 | 15.6 | 0.00 | 0.23 | 0.23 | 97 | 1008.0 |
| 20260506230857 | 53 | 186 | 7.0 | 18.2 | 0.00 | 0.23 | 0.23 | 97 | 1007.8 |
| 20260506230353 | 53 | 199 | 10.4 | 16.5 | 0.02 | 0.23 | 0.23 | 97 | 1007.9 |
| 20260506225849 | 53 | 189 | 11.3 | 15.6 | 0.05 | 0.23 | 0.23 | 97 | 1007.9 |
| 20260506225347 | 53 | 186 | 7.8 | 13.9 | 0.00 | 0.22 | 0.22 | 96 | 1007.9 |
| 20260506224844 | 53 | 177 | 7.8 | 13.0 | 0.00 | 0.22 | 0.22 | 96 | 1007.9 |
| 20260506224342 | 53 | 180 | 9.6 | 10.4 | 0.02 | 0.22 | 0.22 | 96 | 1007.9 |
| 20260506223838 | 53 | 193 | 12.2 | 15.6 | 0.17 | 0.22 | 0.22 | 96 | 1008.0 |
| 20260506223333 | 53 | 176 | 7.0 | 17.4 | 0.26 | 0.22 | 0.22 | 96 | 1008.1 |
| 20260506222831 | 53 | 180 | 8.7 | 14.8 | 0.19 | 0.19 | 0.19 | 96 | 1008.1 |
| 20260506222326 | 53 | 203 | 10.4 | 14.8 | 0.14 | 0.17 | 0.17 | 96 | 1008.4 |
| 20260506221824 | 53 | 192 | 9.6 | 16.5 | 0.14 | 0.16 | 0.16 | 96 | 1008.1 |
| 20260506221321 | 53 | 195 | 12.2 | 14.8 | 0.14 | 0.15 | 0.15 | 95 | 1008.3 |
| 20260506220819 | 53 | 198 | 9.6 | 14.8 | 0.09 | 0.13 | 0.13 | 95 | 1008.2 |
| 20260506220319 | 53 | 195 | 8.7 | 15.6 | 0.05 | 0.12 | 0.12 | 95 | 1008.4 |
| 20260506215816 | 53 | 196 | 7.8 | 12.2 | 0.05 | 0.11 | 0.11 | 95 | 1008.7 |
| 20260506215312 | 53 | 203 | 8.7 | 11.3 | 0.12 | 0.11 | 0.11 | 95 | 1008.6 |
| 20260506214808 | 53 | 199 | 7.0 | 14.8 | 0.09 | 0.11 | 0.11 | 94 | 1008.8 |
| 20260506214305 | 53 | 179 | 7.8 | 14.8 | 0.00 | 0.09 | 0.09 | 94 | 1008.7 |
| 20260506213803 | 53 | 191 | 7.8 | 14.8 | 0.05 | 0.09 | 0.09 | 94 | 1008.8 |
| 20260506213300 | 53 | 191 | 9.6 | 13.9 | 0.07 | 0.09 | 0.09 | 94 | 1008.6 |
| 20260506212757 | 53 | 179 | 12.2 | 18.2 | 0.14 | 0.08 | 0.08 | 94 | 1008.4 |
| 20260506212253 | 53 | 201 | 12.2 | 14.8 | 0.12 | 0.07 | 0.07 | 94 | 1008.6 |
| 20260506211748 | 53 | 179 | 7.8 | 11.3 | 0.02 | 0.06 | 0.06 | 93 | 1008.8 |
| 20260506211245 | 53 | 203 | 14.8 | 14.8 | 0.00 | 0.05 | 0.05 | 93 | 1008.8 |
| 20260506210742 | 53 | 191 | 7.8 | 12.2 | 0.02 | 0.05 | 0.05 | 93 | 1008.9 |
| 20260506210239 | 53 | 173 | 8.7 | 15.6 | 0.02 | 0.05 | 0.05 | 93 | 1008.9 |
| 20260506205736 | 53 | 211 | 9.6 | 11.3 | 0.02 | 0.05 | 0.05 | 93 | 1008.8 |
| 20260506205231 | 54 | 186 | 5.2 | 12.2 | 0.05 | 0.05 | 0.05 | 93 | 1008.8 |
| 20260506204728 | 54 | 210 | 12.2 | 13.0 | 0.05 | 0.04 | 0.04 | 93 | 1009.0 |
| 20260506204226 | 54 | 199 | 8.7 | 13.0 | 0.05 | 0.04 | 0.04 | 93 | 1009.0 |
| 20260506203724 | 54 | 194 | 7.8 | 9.6 | 0.05 | 0.04 | 0.04 | 93 | 1009.0 |
| 20260506203221 | 53 | 201 | 8.7 | 9.6 | 0.02 | 0.03 | 0.03 | 92 | 1009.1 |
| 20260506202719 | 53 | 191 | 7.8 | 12.2 | 0.02 | 0.03 | 0.03 | 92 | 1009.0 |
| 20260506202215 | 54 | 191 | 7.8 | 13.0 | 0.02 | 0.02 | 0.02 | 92 | 1009.2 |
| 20260506201712 | 54 | 170 | 3.5 | 12.2 | 0.02 | 0.02 | 0.02 | 92 | 1009.0 |
| 20260506201208 | 54 | 160 | 7.8 | 11.3 | 0.02 | 0.02 | 0.02 | 92 | 1009.2 |
| 20260506200705 | 54 | 161 | 7.8 | 12.2 | 0.00 | 0.02 | 0.02 | 92 | 1009.2 |
| 20260506200202 | 54 | 179 | 6.1 | 15.6 | 0.02 | 0.02 | 0.02 | 92 | 1009.2 |
| 20260506195658 | 54 | 164 | 10.4 | 14.8 | 0.05 | 0.02 | 0.02 | 91 | 1009.4 |
| 20260506195155 | 54 | 183 | 8.7 | 14.8 | 0.02 | 0.01 | 0.01 | 91 | 1009.6 |
| 20260506194652 | 54 | 192 | 8.7 | 13.9 | 0.02 | 0.01 | 0.01 | 91 | 1009.6 |
| 20260506194148 | 54 | 185 | 5.2 | 15.6 | 0.02 | 0.01 | 0.01 | 91 | 1009.7 |
| 20260506193646 | 54 | 194 | 13.0 | 13.9 | 0.02 | 0.00 | 0.00 | 90 | 1009.7 |
| 20260506193143 | 54 | 194 | 8.7 | 11.3 | 0.00 | 0.00 | 0.00 | 90 | 1009.5 |
| 20260506192640 | 54 | 195 | 7.8 | 13.0 | 0.00 | 0.00 | 0.00 | 89 | 1009.8 |
| 20260506192136 | 54 | 195 | 7.8 | 17.4 | 0.00 | 0.00 | 0.00 | 88 | 1009.7 |
| 20260506191633 | 55 | 187 | 10.4 | 13.0 | 0.00 | 0.00 | 0.00 | 88 | 1009.9 |
| 20260506191129 | 55 | 198 | 9.6 | 16.5 | 0.00 | 0.00 | 0.00 | 88 | 1010.1 |
| 20260506190626 | 55 | 201 | 13.0 | 13.0 | 0.00 | 0.00 | 0.00 | 88 | 1010.0 |
| 20260506190123 | 55 | 190 | 6.1 | 22.6 | 0.00 | 0.00 | 0.00 | 88 | 1010.1 |
| 20260506185620 | 55 | 189 | 8.7 | 20.9 | 0.00 | 0.00 | 0.00 | 88 | 1010.1 |
| 20260506185116 | 55 | 206 | 10.4 | 15.6 | 0.00 | 0.00 | 0.00 | 87 | 1010.2 |
| 20260506184614 | 55 | 205 | 11.3 | 20.0 | 0.00 | 0.00 | 0.00 | 87 | 1010.1 |
| 20260506184111 | 55 | 173 | 8.7 | 20.0 | 0.00 | 0.00 | 0.00 | 86 | 1010.0 |
| 20260506183608 | 56 | 178 | 7.0 | 13.9 | 0.00 | 0.00 | 0.00 | 86 | 1009.9 |
| 20260506183104 | 56 | 178 | 11.3 | 18.2 | 0.00 | 0.00 | 0.00 | 86 | 1009.9 |
| 20260506182601 | 56 | 177 | 13.9 | 20.0 | 0.00 | 0.00 | 0.00 | 86 | 1010.1 |
| 20260506182058 | 56 | 195 | 11.3 | 20.9 | 0.00 | 0.00 | 0.00 | 86 | 1010.2 |
| 20260506181556 | 56 | 187 | 9.6 | 17.4 | 0.00 | 0.00 | 0.00 | 86 | 1010.3 |
| 20260506181053 | 56 | 179 | 9.6 | 20.0 | 0.00 | 0.00 | 0.00 | 87 | 1010.2 |
| 20260506180549 | 56 | 193 | 7.8 | 18.2 | 0.00 | 0.00 | 0.00 | 87 | 1010.4 |
| 20260506180046 | 56 | 198 | 11.3 | 14.8 | 0.00 | 0.00 | 0.00 | 87 | 1010.5 |
| 20260506175542 | 55 | 206 | 13.0 | 14.8 | 0.00 | 0.00 | 0.00 | 88 | 1010.7 |
| 20260506175039 | 55 | 205 | 11.3 | 22.6 | 0.00 | 0.00 | 0.00 | 88 | 1010.8 |
| 20260506174538 | 55 | 191 | 17.4 | 19.1 | 0.00 | 0.00 | 0.00 | 88 | 1011.0 |
| 20260506174033 | 55 | 205 | 15.6 | 18.2 | 0.00 | 0.00 | 0.00 | 88 | 1011.1 |
| 20260506173531 | 55 | 213 | 13.0 | 13.9 | 0.00 | 0.00 | 0.00 | 88 | 1011.3 |
| 20260506173028 | 55 | 203 | 13.0 | 16.5 | 0.00 | 0.00 | 0.00 | 88 | 1011.4 |
| 20260506172526 | 55 | 214 | 9.6 | 14.8 | 0.00 | 0.00 | 0.00 | 88 | 1011.4 |
| 20260506172021 | 55 | 205 | 13.0 | 21.7 | 0.00 | 0.00 | 0.00 | 88 | 1011.2 |
| 20260506171519 | 55 | 198 | 13.9 | 16.5 | 0.00 | 0.00 | 0.00 | 87 | 1011.2 |
| 20260506171017 | 55 | 165 | 7.8 | 18.2 | 0.00 | 0.00 | 0.00 | 87 | 1011.0 |
| 20260506170514 | 56 | 188 | 11.3 | 16.5 | 0.00 | 0.00 | 0.00 | 86 | 1011.2 |
| 20260506170012 | 56 | 185 | 12.2 | 16.5 | 0.00 | 0.00 | 0.00 | 86 | 1011.2 |
| 20260506165510 | 56 | 179 | 10.4 | 21.7 | 0.00 | 0.00 | 0.00 | 86 | 1011.3 |
| 20260506165005 | 56 | 214 | 11.3 | 13.9 | 0.00 | 0.00 | 0.00 | 86 | 1011.2 |
| 20260506164502 | 56 | 197 | 14.8 | 24.3 | 0.00 | 0.00 | 0.00 | 86 | 1011.4 |
| 20260506164000 | 56 | 204 | 16.5 | 20.0 | 0.00 | 0.00 | 0.00 | 86 | 1011.6 |
| 20260506163455 | 56 | 195 | 12.2 | 17.4 | 0.00 | 0.00 | 0.00 | 86 | 1011.6 |
| 20260506162950 | 56 | 196 | 11.3 | 19.1 | 0.00 | 0.00 | 0.00 | 86 | 1011.5 |
| 20260506162448 | 56 | 194 | 10.4 | 22.6 | 0.00 | 0.00 | 0.00 | 87 | 1011.7 |
| 20260506161945 | 56 | 192 | 10.4 | 17.4 | 0.00 | 0.00 | 0.00 | 87 | 1011.7 |
| 20260506161443 | 55 | 193 | 13.0 | 17.4 | 0.00 | 0.00 | 0.00 | 87 | 1012.0 |
| 20260506160940 | 55 | 201 | 8.7 | 18.2 | 0.00 | 0.00 | 0.00 | 88 | 1011.8 |
| 20260506160437 | 55 | 213 | 13.0 | 19.1 | 0.00 | 0.00 | 0.00 | 88 | 1012.1 |
| 20260506155935 | 55 | 199 | 13.9 | 20.9 | 0.00 | 0.00 | 0.00 | 88 | 1012.3 |
| 20260506155432 | 55 | 206 | 17.4 | 19.1 | 0.00 | 0.00 | 0.00 | 87 | 1012.2 |
| 20260506153554 | 55 | 195 | 11.3 | 17.4 | 0.00 | 0.00 | 0.00 | 87 | 1012.3 |
| 20260506153051 | 55 | 191 | 11.3 | 17.4 | 0.00 | 0.00 | 0.00 | 87 | 1012.4 |
| 20260506152548 | 56 | 184 | 11.3 | 18.2 | 0.00 | 0.00 | 0.00 | 87 | 1012.3 |
| 20260506152046 | 56 | 181 | 9.6 | 17.4 | 0.00 | 0.00 | 0.00 | 87 | 1012.3 |
| 20260506151544 | 55 | 193 | 16.5 | 17.4 | 0.00 | 0.00 | 0.00 | 87 | 1012.4 |
| 20260506151041 | 56 | 200 | 13.9 | 15.6 | 0.00 | 0.00 | 0.00 | 87 | 1012.5 |
| 20260506150537 | 56 | 196 | 7.8 | 14.8 | 0.00 | 0.00 | 0.00 | 87 | 1012.7 |
| 20260506150034 | 56 | 198 | 9.6 | 15.6 | 0.00 | 0.00 | 0.00 | 87 | 1012.8 |
| 20260506145531 | 55 | 196 | 8.7 | 17.4 | 0.00 | 0.00 | 0.00 | 87 | 1012.8 |
| 20260506145028 | 55 | 159 | 7.0 | 16.5 | 0.00 | 0.00 | 0.00 | 87 | 1012.7 |
| 20260506144525 | 56 | 196 | 13.0 | 14.8 | 0.00 | 0.00 | 0.00 | 87 | 1012.6 |
| 20260506144022 | 55 | 201 | 8.7 | 15.6 | 0.00 | 0.00 | 0.00 | 87 | 1012.6 |
| 20260506143520 | 55 | 199 | 8.7 | 10.4 | 0.00 | 0.00 | 0.00 | 87 | 1012.7 |
| 20260506143018 | 55 | 199 | 10.4 | 17.4 | 0.00 | 0.00 | 0.00 | 87 | 1012.5 |
| 20260506142515 | 55 | 195 | 7.8 | 14.8 | 0.00 | 0.00 | 0.00 | 87 | 1012.6 |
| 20260506142013 | 55 | 215 | 13.9 | 18.2 | 0.00 | 0.00 | 0.00 | 87 | 1012.4 |
| 20260506141511 | 55 | 181 | 4.3 | 9.6 | 0.00 | 0.00 | 0.00 | 87 | 1012.4 |
| 20260506141009 | 55 | 187 | 5.2 | 9.6 | 0.00 | 0.00 | 0.00 | 87 | 1012.3 |
| 20260506140506 | 55 | 173 | 6.1 | 9.6 | 0.00 | 0.00 | 0.00 | 87 | 1012.2 |
| 20260506140003 | 55 | 174 | 6.1 | 8.7 | 0.00 | 0.00 | 0.00 | 87 | 1012.1 |
| 20260506135500 | 55 | 188 | 5.2 | 11.3 | 0.00 | 0.00 | 0.00 | 86 | 1012.3 |
| 20260506134956 | 56 | 170 | 3.5 | 12.2 | 0.00 | 0.00 | 0.00 | 87 | 1012.5 |
| 20260506134452 | 56 | 191 | 6.1 | 10.4 | 0.00 | 0.00 | 0.00 | 87 | 1012.6 |
| 20260506133949 | 56 | 192 | 6.1 | 14.8 | 0.00 | 0.00 | 0.00 | 87 | 1012.6 |
| 20260506133446 | 56 | 215 | 10.4 | 14.8 | 0.00 | 0.00 | 0.00 | 87 | 1012.7 |
| 20260506132943 | 55 | 209 | 8.7 | 13.0 | 0.00 | 0.00 | 0.00 | 87 | 1012.8 |
| 20260506132440 | 55 | 213 | 7.8 | 14.8 | 0.00 | 0.00 | 0.00 | 87 | 1012.8 |
| 20260506131937 | 56 | 203 | 9.6 | 10.4 | 0.00 | 0.00 | 0.00 | 87 | 1012.8 |
| 20260506131434 | 56 | 186 | 7.0 | 13.0 | 0.00 | 0.00 | 0.00 | 87 | 1012.7 |
| 20260506130931 | 56 | 215 | 13.0 | 14.8 | 0.00 | 0.00 | 0.00 | 87 | 1012.8 |
| 20260506130427 | 56 | 206 | 7.0 | 11.3 | 0.00 | 0.00 | 0.00 | 87 | 1012.7 |
| 20260506125925 | 56 | 209 | 10.4 | 13.0 | 0.00 | 0.00 | 0.00 | 87 | 1012.7 |
| 20260506125423 | 56 | 191 | 15.6 | 15.6 | 0.00 | 0.00 | 0.00 | 87 | 1012.6 |
| 20260506124921 | 56 | 210 | 8.7 | 13.9 | 0.00 | 0.00 | 0.00 | 87 | 1012.7 |
| 20260506124418 | 56 | 205 | 11.3 | 13.0 | 0.00 | 0.00 | 0.00 | 87 | 1012.6 |
| 20260506123916 | 56 | 196 | 10.4 | 13.9 | 0.00 | 0.00 | 0.00 | 87 | 1012.6 |
| 20260506123414 | 56 | 180 | 7.8 | 11.3 | 0.00 | 0.00 | 0.00 | 88 | 1012.5 |
| 20260506122911 | 56 | 188 | 11.3 | 11.3 | 0.00 | 0.00 | 0.00 | 88 | 1012.6 |
| 20260506122408 | 55 | 184 | 5.2 | 7.8 | 0.00 | 0.00 | 0.00 | 88 | 1012.6 |
| 20260506121906 | 55 | 206 | 6.1 | 11.3 | 0.00 | 0.00 | 0.00 | 89 | 1012.6 |
| 20260506121403 | 55 | 213 | 8.7 | 15.6 | 0.00 | 0.00 | 0.00 | 88 | 1012.6 |
| 20260506120859 | 55 | 199 | 7.8 | 9.6 | 0.00 | 0.00 | 0.00 | 88 | 1012.6 |
| 20260506120357 | 55 | 200 | 6.1 | 12.2 | 0.00 | 0.00 | 0.00 | 89 | 1012.5 |
| 20260506115855 | 55 | 195 | 8.7 | 12.2 | 0.00 | 0.00 | 0.00 | 89 | 1012.6 |
| 20260506115353 | 55 | 197 | 5.2 | 9.6 | 0.00 | 0.00 | 0.00 | 89 | 1012.7 |
| 20260506114850 | 55 | 201 | 7.8 | 13.9 | 0.00 | 0.00 | 0.00 | 89 | 1012.8 |
| 20260506114348 | 55 | 197 | 7.8 | 11.3 | 0.00 | 0.00 | 0.00 | 89 | 1012.8 |
| 20260506113847 | 55 | 207 | 7.8 | 10.4 | 0.00 | 0.00 | 0.00 | 90 | 1012.9 |
| 20260506113343 | 55 | 192 | 7.0 | 11.3 | 0.00 | 0.00 | 0.00 | 90 | 1013.0 |
| 20260506112840 | 55 | 184 | 5.2 | 13.0 | 0.00 | 0.00 | 0.00 | 91 | 1013.0 |
| 20260506112337 | 54 | 202 | 9.6 | 13.0 | 0.00 | 0.00 | 0.00 | 91 | 1013.0 |
| 20260506111834 | 54 | 193 | 10.4 | 11.3 | 0.00 | 0.00 | 0.00 | 91 | 1013.0 |
| 20260506111333 | 54 | 193 | 8.7 | 13.0 | 0.00 | 0.00 | 0.00 | 91 | 1012.8 |
| 20260506110830 | 54 | 188 | 11.3 | 17.4 | 0.00 | 0.00 | 0.00 | 91 | 1012.9 |
| 20260506110327 | 54 | 204 | 10.4 | 15.6 | 0.00 | 0.00 | 0.00 | 91 | 1012.8 |
| 20260506105824 | 54 | 207 | 11.3 | 14.8 | 0.00 | 0.00 | 0.00 | 91 | 1012.8 |
| 20260506105320 | 54 | 179 | 9.6 | 13.9 | 0.00 | 0.00 | 0.00 | 92 | 1012.9 |
| 20260506104818 | 54 | 208 | 13.0 | 14.8 | 0.00 | 0.00 | 0.00 | 92 | 1012.7 |
| 20260506104315 | 54 | 172 | 4.3 | 12.2 | 0.00 | 0.00 | 0.00 | 92 | 1012.5 |
| 20260506103813 | 54 | 181 | 5.2 | 9.6 | 0.00 | 0.00 | 0.00 | 92 | 1012.7 |
| 20260506103310 | 54 | 203 | 7.0 | 9.6 | 0.00 | 0.00 | 0.00 | 92 | 1012.5 |
| 20260506102808 | 54 | 183 | 7.0 | 7.8 | 0.00 | 0.00 | 0.00 | 93 | 1012.7 |
| 20260506102306 | 54 | 192 | 7.8 | 7.8 | 0.00 | 0.00 | 0.00 | 93 | 1012.8 |
| 20260506101803 | 54 | 188 | 7.0 | 9.6 | 0.00 | 0.00 | 0.00 | 93 | 1012.7 |
| 20260506101258 | 54 | 191 | 5.2 | 9.6 | 0.00 | 0.00 | 0.00 | 93 | 1012.7 |
| 20260506100756 | 54 | 193 | 7.0 | 9.6 | 0.00 | 0.00 | 0.00 | 93 | 1012.5 |
| 20260506100254 | 54 | 192 | 7.0 | 10.4 | 0.00 | 0.00 | 0.00 | 93 | 1012.5 |
| 20260506095753 | 54 | 195 | 7.8 | 11.3 | 0.00 | 0.00 | 0.00 | 93 | 1012.4 |
| 20260506095249 | 54 | 209 | 10.4 | 11.3 | 0.00 | 0.00 | 0.00 | 93 | 1012.6 |
| 20260506094746 | 54 | 195 | 8.7 | 10.4 | 0.00 | 0.00 | 0.00 | 93 | 1012.5 |
| 20260506094244 | 54 | 198 | 9.6 | 17.4 | 0.00 | 0.00 | 0.00 | 94 | 1012.3 |
| 20260506093743 | 53 | 185 | 7.0 | 9.6 | 0.00 | 0.00 | 0.00 | 93 | 1012.5 |
| 20260506093239 | 53 | 186 | 7.0 | 11.3 | 0.00 | 0.00 | 0.00 | 93 | 1012.4 |
| 20260506092737 | 53 | 193 | 9.6 | 12.2 | 0.00 | 0.00 | 0.00 | 93 | 1012.7 |
| 20260506092235 | 53 | 199 | 9.6 | 12.2 | 0.00 | 0.00 | 0.00 | 93 | 1012.6 |
| 20260506091732 | 53 | 198 | 10.4 | 13.0 | 0.00 | 0.00 | 0.00 | 93 | 1012.5 |
| 20260506091229 | 53 | 199 | 10.4 | 14.8 | 0.00 | 0.00 | 0.00 | 94 | 1012.5 |
| 20260506090727 | 53 | 210 | 11.3 | 16.5 | 0.00 | 0.00 | 0.00 | 93 | 1012.8 |
| 20260506090224 | 53 | 201 | 11.3 | 16.5 | 0.00 | 0.00 | 0.00 | 94 | 1012.6 |
| 20260506085721 | 53 | 203 | 13.9 | 18.2 | 0.00 | 0.00 | 0.00 | 94 | 1012.8 |
| 20260506085217 | 53 | 203 | 11.3 | 15.6 | 0.00 | 0.00 | 0.00 | 94 | 1012.8 |
| 20260506084714 | 53 | 211 | 14.8 | 16.5 | 0.00 | 0.00 | 0.00 | 93 | 1012.8 |
| 20260506084210 | 53 | 205 | 13.9 | 15.6 | 0.00 | 0.00 | 0.00 | 93 | 1012.8 |
| 20260506083707 | 53 | 212 | 11.3 | 16.5 | 0.00 | 0.00 | 0.00 | 93 | 1013.0 |
| 20260506083205 | 53 | 196 | 9.6 | 17.4 | 0.00 | 0.00 | 0.00 | 93 | 1012.9 |
| 20260506082702 | 53 | 206 | 11.3 | 15.6 | 0.00 | 0.00 | 0.00 | 93 | 1012.8 |
| 20260506082202 | 53 | 217 | 12.2 | 14.8 | 0.00 | 0.00 | 0.00 | 93 | 1013.0 |
| 20260506081700 | 53 | 212 | 10.4 | 14.8 | 0.00 | 0.00 | 0.00 | 93 | 1013.0 |
| 20260506081158 | 53 | 212 | 12.2 | 14.8 | 0.00 | 0.00 | 0.00 | 93 | 1013.2 |
| 20260506080655 | 54 | 190 | 7.0 | 13.0 | 0.00 | 0.00 | 0.00 | 93 | 1013.0 |
| 20260506080152 | 54 | 219 | 12.2 | 13.9 | 0.00 | 0.00 | 0.00 | 93 | 1013.1 |
| 20260506073136 | 53 | 209 | 13.0 | 14.8 | 0.00 | 0.00 | 0.00 | 92 | 1013.0 |
| 20260506072632 | 53 | 183 | 10.4 | 14.8 | 0.00 | 0.00 | 0.00 | 92 | 1012.9 |
| 20260506072130 | 53 | 210 | 9.6 | 13.0 | 0.00 | 0.00 | 0.00 | 92 | 1012.9 |
| 20260506071627 | 53 | 210 | 13.0 | 13.9 | 0.00 | 0.00 | 0.00 | 92 | 1012.8 |
| 20260506071125 | 53 | 201 | 10.4 | 11.3 | 0.00 | 0.00 | 0.00 | 91 | 1013.0 |
| 20260506070622 | 53 | 194 | 8.7 | 13.9 | 0.00 | 0.00 | 0.00 | 91 | 1012.9 |
| 20260506070119 | 53 | 193 | 8.7 | 12.2 | 0.00 | 0.00 | 0.00 | 91 | 1012.9 |
| 20260506062056 | 55 | 202 | 14.8 | 19.1 | 0.00 | 0.00 | 0.00 | 90 | 1012.9 |
| 20260506061552 | 55 | 213 | 20.9 | 25.2 | 0.00 | 0.00 | 0.00 | 90 | 1012.8 |
| 20260506061050 | 55 | 211 | 16.5 | 22.6 | 0.00 | 0.00 | 0.00 | 90 | 1013.0 |
| 20260506060548 | 55 | 216 | 18.2 | 20.0 | 0.00 | 0.00 | 0.00 | 90 | 1013.2 |
| 20260506051017 | 54 | 210 | 12.2 | 16.5 | 0.00 | 0.00 | 0.00 | 91 | 1013.3 |
| 20260506050515 | 53 | 220 | 9.6 | 13.0 | 0.00 | 0.00 | 0.00 | 91 | 1013.3 |
| 20260506045005 | 53 | 211 | 10.4 | 13.0 | 0.00 | 0.00 | 0.00 | 91 | 1013.5 |
| 20260506044503 | 53 | 204 | 13.0 | 14.8 | 0.00 | 0.00 | 0.00 | 90 | 1013.5 |
| 20260506043959 | 53 | 206 | 9.6 | 13.9 | 0.00 | 0.00 | 0.00 | 90 | 1013.5 |
| 20260506043456 | 53 | 205 | 10.4 | 13.0 | 0.00 | 0.00 | 0.00 | 90 | 1013.6 |
| 20260506042954 | 53 | 214 | 13.0 | 13.9 | 0.00 | 0.00 | 0.00 | 90 | 1013.6 |
| 20260506042454 | 53 | 204 | 9.6 | 14.8 | 0.00 | 0.00 | 0.00 | 90 | 1013.4 |
| 20260506041951 | 54 | 200 | 11.3 | 17.4 | 0.00 | 0.00 | 0.00 | 90 | 1013.5 |
| 20260506041450 | 54 | 208 | 13.9 | 14.8 | 0.00 | 0.00 | 0.00 | 89 | 1013.4 |
| 20260506040946 | 54 | 208 | 16.5 | 17.4 | 0.00 | 0.00 | 0.00 | 89 | 1013.4 |
| 20260506040444 | 54 | 193 | 6.1 | 13.0 | 0.00 | 0.00 | 0.00 | 89 | 1013.4 |
| 20260506035939 | 54 | 206 | 7.8 | 16.5 | 0.00 | 0.00 | 0.00 | 89 | 1013.4 |
| 20260506035437 | 54 | 208 | 13.9 | 17.4 | 0.00 | 0.00 | 0.00 | 89 | 1013.5 |
| 20260506034933 | 54 | 208 | 13.9 | 16.5 | 0.00 | 0.00 | 0.00 | 89 | 1013.4 |
| 20260506034431 | 54 | 209 | 11.3 | 13.0 | 0.00 | 0.00 | 0.00 | 89 | 1013.3 |
| 20260506033928 | 54 | 208 | 13.0 | 15.6 | 0.00 | 0.00 | 0.00 | 89 | 1013.3 |
| 20260506033425 | 54 | 217 | 16.5 | 19.1 | 0.00 | 0.00 | 0.00 | 89 | 1013.2 |
| 20260506032922 | 54 | 215 | 13.9 | 17.4 | 0.00 | 0.00 | 0.00 | 88 | 1013.3 |
| 20260506032419 | 54 | 207 | 12.2 | 18.2 | 0.00 | 0.00 | 0.00 | 88 | 1013.2 |
| 20260506031915 | 54 | 207 | 13.9 | 17.4 | 0.00 | 0.00 | 0.00 | 88 | 1013.2 |
| 20260506031413 | 54 | 210 | 21.7 | 21.7 | 0.00 | 0.00 | 0.00 | 88 | 1013.1 |